utc_time,unix_time,temp,cond,salinity,tds,chla_rfu,chla_ugl,bga_rfu,bga_ugl,odo,sat,nitrate_um,nitrogen_mg,stage,area,discharge,total_discharge
2017-10-01 00:00:00+00:00,1506816610,22.85125,,35.23,34.6575,0.2075,0.835,0.06,0.17,9.475,134.9825,81.39275,1.14005,1.0905,1.9629,0.10915,0.2183
2017-10-01 00:20:00+00:00,1506817810.25,22.83775,,34.405,33.935,0.165,0.6575,-0.0075,-0.0225,9.77,138.495,81.626,1.1433275,1.093,1.9674,0.0501,0.1002
2017-10-01 00:40:00+00:00,1506819010,22.766,,35.0425,34.495,0.3225,1.295,0.115,0.3225,9.775,138.935,80.9605,1.1339825,1.094,1.9692,0.1225,0.245
2017-10-01 01:00:00+00:00,1506820210,22.604,,34.1375,33.6975,0.9175,3.6775,0.6225,1.7425,8.0425,113.335,79.03275,1.1069775,1.096,1.9728,0.11345,0.2269
2017-10-01 01:20:00+00:00,1506821410,22.5485,,34.7875,34.2725,1.0725,4.2925,0.81,2.275,7.9925,112.9725,78.12575,1.0942825,1.098,1.9764,0.1137,0.2274
2017-10-01 01:40:00+00:00,1506822610,22.49375,,34.955,34.4125,1.2575,5.035,1.0075,2.8175,7.8925,111.5575,77.83275,1.090175,1.099,1.9782,0.1119,0.2238
2017-10-01 02:00:00+00:00,1506823810,22.46625,,34.78,34.265,1.4325,5.7275,1.1,3.0775,7.7025,108.695,77.022,1.078845,1.101,1.9818,0.1009,0.2018
2017-10-01 02:20:00+00:00,1506825010,22.37175,,35.0575,34.5025,1.575,6.3125,1.21,3.3875,7.635,107.7625,76.169,1.0668725,1.102,1.9836,0.1309,0.2618
2017-10-01 02:40:00+00:00,1506826210,22.1145,,35.0325,34.48,1.65,6.595,1.2325,3.455,7.49,105.21,76.04725,1.065175,1.102,1.9836,0.0748,0.1496
2017-10-01 03:00:00+00:00,1506827410,21.7,,35.195,34.6125,1.6775,6.7125,1.2875,3.6125,7.6275,106.455,77.84975,1.09042,1.103,1.9854,0.08895,0.1779
2017-10-01 03:20:00+00:00,1506828610,21.448,,35.1775,34.5975,1.5875,6.35,1.3025,3.6425,7.6775,106.6625,78.5,1.0995275,1.103,1.9854,0.1142,0.2284
2017-10-01 03:40:00+00:00,1506829810,21.12425,,34.91,34.3625,1.4375,5.7525,1.185,3.325,7.895,108.8725,80.27825,1.1244375,1.104,1.9872,0.0918,0.1836
2017-10-01 04:00:00+00:00,1506831010,20.91325,,34.76,34.225,1.2525,5.01,1.06,2.97,8.025,110.1625,81.38275,1.13991,1.104,1.9872,0.09745,0.1949
2017-10-01 04:20:00+00:00,1506832210,20.80625,,35.0025,34.445,1.325,5.3,1.0525,2.945,7.88,108.1125,81.40025,1.1401425,1.105,1.989,0.0882,0.1764
2017-10-01 04:40:00+00:00,1506833409.75,20.70525,,35.145,34.5675,1.285,5.1425,0.9875,2.765,7.71,105.7175,81.378,1.13984,1.106,1.9908,0.0638,0.1276
2017-10-01 05:00:00+00:00,1506834659.66667,20.4846666666667,,34.5833333333333,34.0666666666667,1.12333333333333,4.48,0.946666666666667,2.65333333333333,7.70666666666667,104.85,82.899,1.16113,1.107,1.9926,0.0724,0.1448
2017-10-01 05:20:00+00:00,1506835810,20.19075,,34.84,34.295,0.9325,3.7375,0.7275,2.04,7.815,105.9125,85.4795,1.19728,1.108,1.9944,0.0621,0.1242
2017-10-01 05:40:00+00:00,1506837010,20.05275,,34.6825,34.1575,0.9125,3.6475,0.67,1.8725,7.585,102.4275,86.156,1.2067675,1.108,1.9944,0.0414,0.0828
2017-10-01 06:00:00+00:00,1506838210,19.86575,,34.5325,34.025,0.845,3.3825,0.65,1.815,7.555,101.6175,86.131,1.2064075,1.108,1.9944,0.03385,0.0677
2017-10-01 06:20:00+00:00,1506839409.75,19.6505,,34.7275,34.195,0.73,2.9125,0.575,1.6125,7.6075,102.0225,87.192,1.2212575,1.108,1.9944,0.0339,0.0678
2017-10-01 06:40:00+00:00,1506840460,19.5033333333333,,34.6466666666667,34.1266666666667,0.65,2.59666666666667,0.543333333333333,1.52,7.63333333333333,102.026666666667,88.3266666666667,1.23716,1.108,1.9944,0.0433,0.0866
2017-10-01 07:00:00+00:00,1506841810,19.444,,34.905,34.3525,0.6875,2.7525,0.5375,1.5075,7.405,99.055,87.423,1.224505,1.108,1.9944,0.0094,0.0188
2017-10-01 07:20:00+00:00,1506843009.25,19.37075,,34.365,33.875,0.615,2.465,0.46,1.29,7.2325,96.29,86.88475,1.2169625,1.104,1.9872,-0.0244,-0.0488
2017-10-01 07:40:00+00:00,1506844210,19.29075,,34.5625,34.0475,0.6375,2.555,0.49,1.3775,7.16,95.2975,86.4055,1.2102525,1.087,1.9566,-0.4647,-0.9294
2017-10-01 08:00:00+00:00,1506845409.75,19.24725,,34.77,34.2325,0.6225,2.4825,0.495,1.3825,7.0075,93.34,86.05475,1.2053325,1.0605,1.9089,-0.76275,-1.5255
2017-10-01 08:20:00+00:00,1506846610,19.20325,,34.87,34.3225,0.6575,2.6325,0.5375,1.5,6.725,89.5225,86.14525,1.2065925,1.043,1.8774,-0.915,-1.83
2017-10-01 08:40:00+00:00,1506847809.75,19.407,,35.1025,34.5225,0.9975,3.99,0.89,2.4875,6.6,88.3375,78.69175,1.102205,1.034,1.8612,-0.8805,-1.761
2017-10-01 09:00:00+00:00,1506849009.5,19.2685,,34.835,34.2875,1.0025,4.0025,0.9025,2.5325,6.18,82.3525,77.95775,1.091925,1.0215,1.8387,-0.79675,-1.5935
2017-10-01 09:20:00+00:00,1506850209.5,19.2955,,34.895,34.34,1.0725,4.29,0.95,2.655,5.755,76.75,74.846,1.04837,1.013,1.8234,-0.8465,-1.693
2017-10-01 09:40:00+00:00,1506851110,19.411,,35.4,34.78,1.2,4.8,1.125,3.15,5.825,78.08,70.383,0.98586,1.006,1.8108,-0.7723,-1.5446
2017-10-01 10:00:00+00:00,1506852609.75,19.76225,,35.4875,34.86,1.4825,5.93,1.34,3.755,7.695,103.9075,67.14375,0.94046,1.0055,1.8099,-0.68005,-1.3601
2017-10-01 10:20:00+00:00,1506853809.5,19.6425,,35.5525,34.92,1.435,5.735,1.2825,3.59,7.2875,98.16,66.32475,0.9289775,1.014,1.8252,-0.5026,-1.0052
2017-10-01 10:40:00+00:00,1506855009.5,19.71775,,35.23,34.6375,1.65,6.605,1.5175,4.2425,7.7275,104.0975,64.41775,0.9022825,1.027,1.8486,-0.2173,-0.4346
2017-10-01 11:00:00+00:00,1506856209.5,19.58475,,35.3275,34.72,1.655,6.62,1.5225,4.265,7.69,103.3825,64.177,0.8989075,1.0285,1.8513,0.0357,0.0714
2017-10-01 11:20:00+00:00,1506857409.5,19.478,,35.705,35.0525,1.7525,7.0075,1.665,4.655,7.4525,100.215,63.5575,0.89023,1.028,1.8504,0.0209,0.0418
2017-10-01 11:40:00+00:00,1506858609.75,19.32425,,35.6925,35.0375,1.7925,7.18,1.585,4.43,7.45,99.9,63.0875,0.8836525,1.029,1.8522,0.0592,0.1184
2017-10-01 12:00:00+00:00,1506859809.5,19.3385,,35.37,34.7525,2.1225,8.4925,1.9725,5.5275,7.2525,97.055,62.7475,0.878895,1.03,1.854,0.03395,0.0679
2017-10-01 12:20:00+00:00,1506861009.5,19.281,,36.4925,35.7375,2.21,8.8375,1.9325,5.415,6.91,93.0575,62.47925,0.87511,1.029,1.8522,0.047,0.094
2017-10-01 12:40:00+00:00,1506862359.66667,19.312,,36.78,35.99,2.25,9.00333333333333,1.90666666666667,5.34,6.79333333333333,91.6233333333333,62.3483333333333,0.873296666666667,1.032,1.8576,0.0349,0.0698
2017-10-01 13:00:00+00:00,1506863409.75,19.22275,,36.945,36.13,2.43,9.7125,2.1725,6.0825,6.6875,90.125,62.28075,0.8723425,1.035,1.863,0.0587,0.1174
2017-10-01 13:20:00+00:00,1506864609.5,19.004,,36.965,36.15,2.1875,8.755,2.0325,5.69,6.4525,86.655,62.09825,0.8697875,1.035,1.863,0.0508,0.1016
2017-10-01 13:40:00+00:00,1506865809.25,18.95025,,36.805,36.01,2.3675,9.4625,2.065,5.785,6.155,82.46,61.87575,0.866675,1.036,1.8648,0.0912,0.1824
2017-10-01 14:00:00+00:00,1506867009.25,18.95275,,36.9375,36.1275,2.24,8.95,2.04,5.715,6.1175,82.0625,61.87475,0.86666,1.0365,1.8657,0.08775,0.1755
2017-10-01 14:20:00+00:00,1506868209.5,18.90075,,36.9175,36.105,2.215,8.8625,1.9325,5.415,5.9775,80.1475,61.763,0.8651125,1.037,1.8666,0.0773,0.1546
2017-10-01 14:40:00+00:00,1506869409.5,18.79225,,36.955,36.14,2.1875,8.7525,1.94,5.4425,5.865,78.43,61.604,0.862885,1.038,1.8684,0.1072,0.2144
2017-10-01 15:00:00+00:00,1506870609.75,18.8175,,36.9275,36.1175,2,8,1.795,5.0275,5.7125,76.425,61.644,0.863425,1.0385,1.8693,0.1108,0.2216
2017-10-01 15:20:00+00:00,1506871809.5,18.86675,,36.945,36.135,1.9275,7.705,1.6825,4.705,5.6875,76.2175,61.63225,0.86326,1.039,1.8702,0.1284,0.2568
2017-10-01 15:40:00+00:00,1506873009.25,18.8155,,36.97,36.1525,1.8175,7.26,1.6,4.4775,5.6425,75.5125,61.64325,0.8634325,1.039,1.8702,0.095,0.19
2017-10-01 16:00:00+00:00,1506874209.25,18.804,,36.9625,36.15,1.8525,7.42,1.62,4.535,5.6675,75.82,61.541,0.86199,1.041,1.8738,0.0987,0.1974
2017-10-01 16:20:00+00:00,1506875409.25,18.73725,,36.9575,36.145,1.74,6.97,1.5675,4.395,5.6175,75.0775,61.42775,0.860405,1.045,1.881,0.1027,0.2054
2017-10-01 16:40:00+00:00,1506876609.5,18.70125,,36.945,36.135,1.7475,6.99,1.545,4.325,5.495,73.35,61.39375,0.8599325,1.046,1.8828,0.0762,0.1524
2017-10-01 17:00:00+00:00,1506877809.25,18.70275,,36.9275,36.1175,1.71,6.8425,1.55,4.3375,5.3925,71.9675,61.2975,0.8585575,1.0465,1.8837,0.11345,0.2269
2017-10-01 17:20:00+00:00,1506879009.25,18.7905,,36.945,36.1325,1.6225,6.4875,1.4275,4.0025,5.4775,73.265,61.37925,0.8597125,1.047,1.8846,0.1312,0.2624
2017-10-01 17:40:00+00:00,1506880209.5,18.89975,,36.94,36.13,1.3875,5.5575,1.18,3.305,5.8275,78.085,61.42925,0.860425,1.046,1.8828,0.1098,0.2196
2017-10-01 18:00:00+00:00,1506881409.5,19.072,,36.89,36.0825,1.1225,4.4825,0.8825,2.47,6.02,80.9325,61.663,0.863705,1.045,1.881,0.1133,0.2266
2017-10-01 18:20:00+00:00,1506882609.25,19.34425,,36.805,36.0125,1.115,4.47,0.8225,2.3025,6.175,83.355,62.02375,0.868755,1.044,1.8792,0.1167,0.2334
2017-10-01 18:40:00+00:00,1506883809.25,19.54,,36.785,35.995,1.0675,4.275,1.17,3.2825,6.365,86.2,62.379,0.8737175,1.043,1.8774,0.0936,0.1872
2017-10-01 19:00:00+00:00,1506884709.5,19.555,,36.635,35.86,0.97,3.88,0.76,2.13,6.355,86.02,64.7535,0.90699,1.0425,1.8765,0.0733,0.1466
2017-10-01 19:20:00+00:00,1506886209.25,19.74225,,36.2575,35.5325,0.785,3.1375,0.6525,1.8275,6.485,87.93,70.23275,0.98373,1.042,1.8756,0.0071,0.0142
2017-10-01 19:40:00+00:00,1506887409.25,19.965,,36.195,35.48,0.76,3.0325,0.6575,1.84,6.5675,89.395,71.51275,1.001675,1.046,1.8828,0.0549,0.1098
2017-10-01 20:00:00+00:00,1506888609,20.198,,36.3675,35.63,0.725,2.8925,0.6375,1.7825,6.7975,92.985,73.1235,1.0242225,1.0465,1.8837,0.05495,0.1099
2017-10-01 20:20:00+00:00,1506889809.25,20.6225,,36.415,35.675,0.83,3.3125,0.84,2.3525,7.425,102.3925,72.75475,1.0190575,1.046,1.8828,0.0372,0.0744
2017-10-01 20:40:00+00:00,1506891009.25,21.26,,36.47,35.73,0.9225,3.695,0.8725,2.4375,8.5875,119.81,72.09125,1.0097625,1.049,1.8882,0.0515,0.103
2017-10-01 21:00:00+00:00,1506892209,21.48075,,36.3875,35.655,0.8375,3.345,0.8125,2.2725,8.5825,120.1625,73.876,1.0347575,1.048,1.8864,0.05325,0.1065
2017-10-01 21:20:00+00:00,1506893409.25,21.85325,,36.4475,35.7125,0.6825,2.7275,0.7875,2.2,8.9225,125.8325,74.16275,1.03878,1.048,1.8864,0.0533,0.1066
2017-10-01 21:40:00+00:00,1506894609,22.343,,36.4225,35.6975,0.6275,2.505,0.52,1.4525,9.915,140.98,74.00675,1.0365875,1.048,1.8864,0.1651,0.3302
2017-10-01 22:00:00+00:00,1506895809.25,22.33325,,36.4325,35.7025,1.02,4.08,1.2075,3.3875,9.1825,130.5125,74.815,1.0479175,1.043,1.8774,0.0857,0.1714
2017-10-01 22:20:00+00:00,1506897009.25,22.5365,,36.3925,35.67,0.7825,3.1225,0.875,2.4575,9.2025,131.2675,75.769,1.0612575,1.043,1.8774,-0.0035,-0.007
2017-10-01 22:40:00+00:00,1506898209,22.3265,,36.345,35.6275,0.625,2.5025,0.3675,1.0275,8.5575,121.575,77.91975,1.09139,1.046,1.8828,0.0248,0.0496
2017-10-01 23:00:00+00:00,1506899409.25,22.3985,,36.1175,35.43,0.625,2.5,0.37,1.0425,8.725,123.955,78.70875,1.1024475,1.0475,1.8855,0.0559,0.1118
2017-10-01 23:20:00+00:00,1506900609,22.51075,,35.6625,35.0375,0.6025,2.4075,0.405,1.1375,9.56,135.6975,77.932,1.09157,1.05,1.89,0.1441,0.2882
2017-10-01 23:40:00+00:00,1506901809,22.5365,,35.87,35.215,0.61,2.4375,0.415,1.1575,9.8075,139.46,78.9635,1.106005,1.049,1.8882,0.0977,0.1954
2017-10-02 00:00:00+00:00,1506903009,22.508,,36.0275,35.35,0.6625,2.6375,0.415,1.16,10.155,144.4475,78.80425,1.1037725,1.0595,1.9071,-0.00764999999999999,-0.0153
2017-10-02 00:20:00+00:00,1506904209.25,22.191,,36.2375,35.5325,0.75,3.0075,0.495,1.39,9.815,138.9975,79.32625,1.11109,1.057,1.9026,0.0501,0.1002
2017-10-02 00:40:00+00:00,1506905409,21.92975,,36.1625,35.4625,0.73,2.9225,0.425,1.1875,9.9625,140.4175,80.575,1.128585,1.058,1.9044,0.0323,0.0646
2017-10-02 01:00:00+00:00,1506906609,21.807,,36.2175,35.5075,0.8925,3.565,0.595,1.665,9.6525,135.785,79.95075,1.1198425,1.0585,1.9053,0.1354,0.2708
2017-10-02 01:20:00+00:00,1506907809,21.8015,,36.225,35.515,1.41,5.6475,1.1325,3.165,9.4025,132.235,79.325,1.1110775,1.061,1.9098,0.1367,0.2734
2017-10-02 01:40:00+00:00,1506909009,21.858,,36.325,35.6025,1.8275,7.3125,1.51,4.23,8.7775,123.65,77.955,1.0918925,1.061,1.9098,0.1079,0.2158
2017-10-02 02:00:00+00:00,1506910059,21.9426666666667,,36.4133333333333,35.6833333333333,2.31666666666667,9.26,1.91,5.35,8.23666666666667,116.266666666667,76.5946666666667,1.07284,1.0655,1.9179,0.1111,0.2222
2017-10-02 02:20:00+00:00,1506911709,21.7015,,36.365,35.635,2.285,9.145,1.85,5.185,8.31,116.75,76.9265,1.07751,1.066,1.9188,0.1626,0.3252
2017-10-02 02:40:00+00:00,1506912609,21.604,,36.3875,35.655,2.665,10.655,2.2225,6.23,8.1925,114.9425,76.9765,1.0781925,1.067,1.9206,0.0651,0.1302
2017-10-02 03:00:00+00:00,1506913809,21.475,,36.385,35.6525,3,11.9825,2.7175,7.615,8.065,112.9,76.7945,1.0756325,1.069,1.9242,0.13865,0.2773
2017-10-02 03:20:00+00:00,1506915009,21.3025,,36.3825,35.65,3.2525,13.01,3.06,8.57,7.825,109.195,76.2165,1.067545,1.072,1.9296,0.0545,0.109
2017-10-02 03:40:00+00:00,1506916209,20.9265,,36.41,35.67,3.5525,14.2225,2.915,8.1675,7.72,107.0325,75.86125,1.0625575,1.073,1.9314,0.1656,0.3312
2017-10-02 04:00:00+00:00,1506917409,20.64525,,36.2275,35.5125,2.73,10.92,2.5075,7.015,8.075,111.255,79.6185,1.11518,1.0745,1.9341,0.1403,0.2806
2017-10-02 04:20:00+00:00,1506918609,20.67125,,36.2625,35.54,3.055,12.2175,4.8275,13.52,7.8275,107.96,79.0875,1.1077525,1.077,1.9386,0.1479,0.2958
2017-10-02 04:40:00+00:00,1506919809,20.69125,,36.3075,35.58,3.1725,12.69,3.0775,8.6175,7.655,105.6325,76.687,1.0741275,1.076,1.9368,0.166,0.332
2017-10-02 05:00:00+00:00,1506921008.75,20.5115,,36.25,35.53,2.7,10.8,2.54,7.11,7.8325,107.67,79.1925,1.10924,1.0765,1.9377,0.1159,0.2318
2017-10-02 05:20:00+00:00,1506922209,20.0605,,35.92,35.24,2.085,8.3375,1.81,5.065,8.055,109.6125,87.145,1.2206175,1.077,1.9386,0.0858,0.1716
2017-10-02 05:40:00+00:00,1506923409,19.6445,,35.805,35.14,1.855,7.4275,1.575,4.4125,8.02,108.2275,93.4325,1.3086775,1.076,1.9368,0.0858,0.1716
2017-10-02 06:00:00+00:00,1506924609,19.461,,35.86,35.1875,1.7925,7.1675,1.545,4.3275,7.8275,105.2775,94.00325,1.316665,1.076,1.9368,0.0547,0.1094
2017-10-02 06:20:00+00:00,1506925808.75,19.31875,,35.7725,35.1075,1.7925,7.165,1.5925,4.455,7.66,102.7275,94.2665,1.3203575,1.076,1.9368,0.0639,0.1278
2017-10-02 06:40:00+00:00,1506927009,19.27525,,35.74,35.0825,1.7625,7.0525,1.4925,4.175,7.41,99.2825,93.9495,1.3159225,1.076,1.9368,0.0511,0.1022
2017-10-02 07:00:00+00:00,1506928208.75,19.20725,,35.9,35.22,1.705,6.8025,1.3625,3.815,7.16,95.875,91.19275,1.27731,1.075,1.935,0.03005,0.0601
2017-10-02 07:20:00+00:00,1506929408.75,19.10825,,35.6075,34.9675,1.7475,6.99,1.525,4.27,6.8525,91.4875,92.73875,1.29896,1.076,1.9368,0.0219,0.0438
2017-10-02 07:40:00+00:00,1506930608.5,19.00075,,35.84,35.1675,1.685,6.7375,1.4525,4.0675,6.725,89.7075,92.73325,1.29889,1.076,1.9368,0.0365,0.073
2017-10-02 08:00:00+00:00,1506931809,18.86975,,35.5525,34.92,1.8075,7.225,1.5925,4.46,6.61,87.8225,93.00775,1.302735,1.0745,1.9341,0,0
2017-10-02 08:20:00+00:00,1506933008.75,18.77825,,35.825,35.1575,1.7925,7.1725,1.65,4.6175,6.5675,87.2325,93.51375,1.3098175,1.059,1.9062,-0.4863,-0.9726
2017-10-02 08:40:00+00:00,1506934208.5,18.65025,,35.9825,35.295,1.6025,6.41,1.365,3.82,6.4525,85.59,94.20675,1.3195325,1.043,1.8774,-0.6695,-1.339
2017-10-02 09:00:00+00:00,1506935408.5,18.6115,,35.8525,35.1825,1.5375,6.1425,1.32,3.7025,6.19,81.9925,93.93675,1.31574,1.0215,1.8387,-0.7378,-1.4756
2017-10-02 09:20:00+00:00,1506936608.75,18.60875,,35.7825,35.1225,1.655,6.62,1.5025,4.215,6.015,79.625,89.0815,1.2477475,1.009,1.8162,-0.8771,-1.7542
2017-10-02 09:40:00+00:00,1506937808.75,18.383,,35.88,35.2075,1.755,7.0075,1.5825,4.43,5.8725,77.4375,85.3095,1.1948975,1,1.8,-0.8284,-1.6568
2017-10-02 10:00:00+00:00,1506938858.33333,18.3003333333333,,36.2166666666667,35.5,1.91,7.63333333333333,1.74333333333333,4.88,5.59,73.7966666666667,79.254,1.11010333333333,0.9895,1.7811,-0.8286,-1.6572
2017-10-02 10:20:00+00:00,1506940208.5,18.348,,36.505,35.7525,2.1925,8.78,2.02,5.655,5.77,76.2975,74.46275,1.0429875,0.984,1.7712,-0.7381,-1.4762
2017-10-02 10:40:00+00:00,1506941408.75,18.126,,36.0475,35.355,2.05,8.19,1.8725,5.2425,5.7775,75.92,72.70375,1.0183475,0.983,1.7694,-0.6626,-1.3252
2017-10-02 11:00:00+00:00,1506942608.75,18.15,,36.535,35.7825,2.36,9.445,2.1125,5.915,5.69,75,69.2585,0.9700925,1,1.8,-0.3057,-0.6114
2017-10-02 11:20:00+00:00,1506943858.33333,18.209,,36.4666666666667,35.72,2.61333333333333,10.4533333333333,2.35666666666667,6.6,6.02333333333333,79.4533333333333,66.293,0.92856,1.011,1.8198,0.0205,0.041
2017-10-02 11:40:00+00:00,1506945008.5,18.33425,,37.2325,36.3875,3.0275,12.1075,2.5525,7.1425,6.5125,86.5275,64.481,0.90318,1.01,1.818,0,0
2017-10-02 12:00:00+00:00,1506946208.5,18.03425,,37.1225,36.295,2.9025,11.605,2.635,7.38,6.395,84.4375,64.1525,0.8985575,1.01,1.818,-0.0017,-0.0034
2017-10-02 12:20:00+00:00,1506947408.75,17.80925,,37.065,36.245,2.9175,11.675,2.4,6.7275,6.16,80.9025,63.27975,0.88634,1.011,1.8198,0.0428,0.0856
2017-10-02 12:40:00+00:00,1506948608.75,17.76625,,37.2025,36.365,3.0225,12.09,2.91,8.15,5.935,77.9525,62.62825,0.87721,1.011,1.8198,0.0564,0.1128
2017-10-02 13:00:00+00:00,1506949808.5,17.915,,37.3225,36.4675,3.33,13.315,2.88,8.0625,6.0275,79.475,62.308,0.87271,1.012,1.8216,0.0479,0.0958
2017-10-02 13:20:00+00:00,1506951008.5,17.914,,37.4325,36.565,3.2525,13.015,2.765,7.74,6.0425,79.7275,62.26075,0.8720675,1.012,1.8216,0.0599,0.1198
2017-10-02 13:40:00+00:00,1506952208.5,17.799,,37.255,36.41,3.3475,13.4,3.015,8.4475,5.96,78.3725,62.10975,0.869965,1.013,1.8234,0.072,0.144
2017-10-02 14:00:00+00:00,1506953408.5,17.7005,,36.725,35.95,3.3625,13.4425,3.0475,8.54,5.885,77.035,61.90275,0.867045,1.0135,1.8243,0.06945,0.1389
2017-10-02 14:20:00+00:00,1506954608.5,17.6325,,36.3525,35.625,3.4175,13.67,3.005,8.4125,5.535,72.185,61.73775,0.8647375,1.014,1.8252,0.0703,0.1406
2017-10-02 14:40:00+00:00,1506955808.5,17.51175,,36.8075,36.025,3.2825,13.1275,2.785,7.8,5.5575,72.5375,61.62025,0.863105,1.014,1.8252,0.1218,0.2436
2017-10-02 15:00:00+00:00,1506957008.25,17.4855,,36.065,35.375,3.155,12.62,2.5925,7.26,5.285,68.6275,61.60475,0.86287,1.016,1.8288,0.12805,0.2561
2017-10-02 15:20:00+00:00,1506958208.5,17.48725,,35.77,35.1175,2.9775,11.915,2.4675,6.91,5.175,67.1125,61.50775,0.8615125,1.02,1.836,0.0708,0.1416
2017-10-02 15:40:00+00:00,1506959408.5,17.3465,,35.73,35.085,2.9075,11.6275,2.375,6.65,5.2425,67.7475,61.281,0.8583525,1.021,1.8378,0.1054,0.2108
2017-10-02 16:00:00+00:00,1506960608.5,17.33775,,35.735,35.0875,2.81,11.23,2.2775,6.375,5.355,69.1875,61.25075,0.8579275,1.021,1.8378,0.11485,0.2297
2017-10-02 16:20:00+00:00,1506961808.5,17.2895,,36.115,35.4175,2.5825,10.335,2.1375,5.985,5.285,68.3875,61.22725,0.85758,1.022,1.8396,0.1003,0.2006
2017-10-02 16:40:00+00:00,1506963008.25,17.3225,,36.455,35.72,2.5475,10.19,2.12,5.93,5.3725,69.675,61.19275,0.8571,1.022,1.8396,0.1332,0.2664
2017-10-02 17:00:00+00:00,1506964208.25,17.40525,,36.3925,35.6625,2.39,9.565,2.0625,5.775,5.635,73.19,61.352,0.859335,1.023,1.8414,0.14195,0.2839
2017-10-02 17:20:00+00:00,1506965408.25,17.4545,,36.515,35.77,2.275,9.09,1.91,5.345,5.665,73.6675,61.3785,0.859705,1.024,1.8432,0.1525,0.305
2017-10-02 17:40:00+00:00,1506966308.5,17.575,,35.475,34.855,2.34,9.375,2.005,5.625,5.74,74.385,61.5465,0.86205,1.024,1.8432,0.0936,0.1872
2017-10-02 18:00:00+00:00,1506967808.5,17.8635,,36.05,35.36,1.7775,7.11,1.44,4.0275,5.9175,77.3575,61.91025,0.867165,1.0235,1.8423,0.1221,0.2442
2017-10-02 18:20:00+00:00,1506969008.25,18.13525,,37.015,36.1975,1.3175,5.2675,1.035,2.8975,5.9475,78.645,65.37775,0.9157075,1.024,1.8432,0.0433,0.0866
2017-10-02 18:40:00+00:00,1506970208.25,18.15775,,37.085,36.26,1.16,4.64,0.85,2.38,6.0725,80.3425,69.72225,0.976575,1.024,1.8432,0.0797,0.1594
2017-10-02 19:00:00+00:00,1506971358,18.2373333333333,,36.9833333333333,36.1733333333333,0.97,3.86666666666667,0.613333333333333,1.72,6.08333333333333,80.5633333333333,74.3286666666667,1.04110666666667,1.0235,1.8423,0.0667,0.1334
2017-10-02 19:20:00+00:00,1506972608.25,18.7525,,35.2125,34.6225,0.9,3.5925,0.5475,1.535,6.725,88.995,77.56725,1.0864575,1.022,1.8396,0.0674,0.1348
2017-10-02 19:40:00+00:00,1506973808,19.048,,34.805,34.26,0.9225,3.6875,0.595,1.67,6.775,89.9,78.72775,1.1027325,1.024,1.8432,0.0797,0.1594
2017-10-02 20:00:00+00:00,1506975008.25,19.3755,,34.915,34.3625,1.005,4.02,0.785,2.1875,7.095,94.8025,78.86525,1.104645,1.024,1.8432,0.0364,0.0728
2017-10-02 20:20:00+00:00,1506976208.25,19.605,,36.39,35.6475,0.585,2.345,0.37,1.04,7.335,99.2575,82.7735,1.1593775,1.024,1.8432,0.0849,0.1698
2017-10-02 20:40:00+00:00,1506977408.25,19.91,,35.25,34.6575,0.5075,2.02,0.295,0.8275,7.37,99.6425,85.9675,1.204115,1.023,1.8414,0.0779,0.1558
2017-10-02 21:00:00+00:00,1506978608,20.29775,,35.305,34.7025,0.67,2.6775,0.4725,1.3225,7.8,106.2325,85.5555,1.1983525,1.0245,1.8441,0.03295,0.0659
2017-10-02 21:20:00+00:00,1506979808,20.621,,35.4075,34.795,0.7625,3.0475,0.4275,1.2025,8.015,109.845,82.36275,1.15363,1.023,1.8414,0.0796,0.1592
2017-10-02 21:40:00+00:00,1506981008,21.1305,,35.8675,35.2,0.85,3.41,0.56,1.57,8.7425,121.295,80.987,1.13436,1.022,1.8396,0.0657,0.1314
2017-10-02 22:00:00+00:00,1506982208,21.244,,36.0625,35.3675,0.8325,3.3325,0.5075,1.425,8.4475,117.515,84.01325,1.1767575,1.022,1.8396,0.04325,0.0865
2017-10-02 22:20:00+00:00,1506983408.25,21.44125,,35.4075,34.8025,0.8775,3.5025,0.5725,1.5975,8.8575,123.205,83.11925,1.16421,1.021,1.8378,0.0415,0.083
2017-10-02 22:40:00+00:00,1506984608.25,21.7485,,35.5425,34.92,1.0325,4.1375,0.8125,2.28,9.2025,128.795,82.547,1.1562175,1.021,1.8378,0.0743,0.1486
2017-10-02 23:00:00+00:00,1506985758,21.9243333333333,,35.9466666666667,35.2733333333333,1.06666666666667,4.26,0.77,2.14666666666667,9.57333333333333,134.72,82.273,1.15238,1.021,1.8378,0.03025,0.0605
2017-10-02 23:20:00+00:00,1506987008,21.81525,,35.89,35.22,0.895,3.5975,0.6825,1.9075,9.7925,137.525,83.84175,1.1743525,1.022,1.8396,0.0173,0.0346
2017-10-02 23:40:00+00:00,1506988208,21.6195,,36.005,35.325,0.9375,3.75,0.6575,1.8375,9.6975,135.79,84.10725,1.178065,1.025,1.845,0.0468,0.0936
2017-10-03 00:00:00+00:00,1506989408,21.64075,,35.3275,34.7325,0.905,3.6275,0.6075,1.695,10.135,141.4175,84.142,1.1785375,1.026,1.8468,0.05035,0.1007
2017-10-03 00:20:00+00:00,1506990608,21.58575,,35.2425,34.6575,0.9125,3.6525,0.6025,1.685,10.12,141.04,84.55225,1.184305,1.03,1.854,0.0506,0.1012
2017-10-03 00:40:00+00:00,1506991808,21.524,,34.975,34.4225,1.05,4.1975,0.725,2.0275,10.18,141.4275,84.26275,1.1802475,1.038,1.8684,-0.0457,-0.0914
2017-10-03 01:00:00+00:00,1506993008,21.30525,,35.875,35.2025,1.4575,5.825,1.1075,3.1025,9.655,134.335,84.2965,1.1807125,1.0385,1.8693,0.1539,0.3078
2017-10-03 01:20:00+00:00,1506994208,21.08625,,35.9225,35.2475,1.545,6.175,1.095,3.0725,9.4675,131.265,84.78325,1.18753,1.038,1.8684,-0.0967,-0.1934
2017-10-03 01:40:00+00:00,1506995408,20.9955,,35.8075,35.145,1.8075,7.23,1.2825,3.59,9.2225,127.5875,85.36925,1.195745,1.041,1.8738,0.0811,0.1622
2017-10-03 02:00:00+00:00,1506996608,20.786,,34.7825,34.2475,1.795,7.19,1.265,3.54,9.375,128.4,87.31625,1.2230125,1.041,1.8738,0.1463,0.2926
2017-10-03 02:20:00+00:00,1506997808,20.60875,,35.97,35.2875,2.415,9.6575,1.94,5.425,8.64,118.785,87.43225,1.22465,1.042,1.8756,0.0494,0.0988
2017-10-03 02:40:00+00:00,1506999007.75,20.515,,35.9825,35.2925,2.7,10.795,2.23,6.2475,8.4175,115.5675,86.12075,1.2062625,1.042,1.8756,0.0741,0.1482
2017-10-03 03:00:00+00:00,1507000208,20.50525,,35.4025,34.79,3.3275,13.3075,2.92,8.175,7.905,108.095,83.2185,1.16562,1.0425,1.8765,0.12625,0.2525
2017-10-03 03:20:00+00:00,1507001407.75,20.408,,36.61,35.8425,3.2075,12.8325,2.7025,7.57,7.8925,108.54,83.452,1.1688825,1.048,1.8864,0.1012,0.2024
2017-10-03 03:40:00+00:00,1507002608,20.411,,36.6425,35.8725,3.5925,14.365,3.3875,9.495,7.785,107.0675,83.353,1.167495,1.05,1.89,0.137,0.274
2017-10-03 04:00:00+00:00,1507003808,20.27375,,36.5875,35.8225,3.4825,13.9175,3.1375,8.79,7.765,106.4725,85.35875,1.195585,1.0495,1.8891,0.16445,0.3289
2017-10-03 04:20:00+00:00,1507005008,20.10225,,36.59,35.8225,3.29,13.1625,2.9975,8.3925,7.64,104.45,86.8585,1.2165975,1.051,1.8918,0.0979,0.1958